sat.trackr.live / text

‹ back to catalog

STARLINK-34302

NORAD 65216 · 2025-176U

PAYLOAD ACTIVE UNKNOWN

§ Identity

Operator
Country
US
Launch date
2025-08-14
Launch site
AFETR
Launch vehicle
Mass (kg)
RCS (m²)

Purposes: comms

External: N2YO · Heavens-Above · Gunter

§ Orbital elements

Epoch: 2026-05-24T17:55:54.834816Z

Period
93.85 min
Inclination
53.1583°
Eccentricity
0.0001264
Mean motion
15.34394431 rev/d
Perigee alt
461.9 km
Apogee alt
463.6 km
Semi-major
6,840.9 km
B*
4.1457e-4
RAAN
158.8495°
Arg perigee
83.9677°
Mean anomaly
276.1469°
Rev number
4,477

§ Raw data

STARLINK-343021 65216U 25176U   26144.74716244  .00013654  00000+0  41457-3 0  99952 65216  53.1583 158.8495 0001264  83.9677 276.1469 15.34394431 44774

JSON: /api/v1/satellites/65216 · /tle

For live sub-satellite position, see the globe view (requires WebGL).

§ Visibility from observer

Set your observer location to see the next 7 days of passes ≥ 10°. The values pass through the URL so the page stays shareable.

No JS? Fill the form by hand. The geolocation button needs JavaScript.